Aérodrome :







RETROUVEZ-NOUS SUR...

 
LOGIN :

S'inscrire | Disclaimer

   EN    FR    IT 

 









Légende :    VFR   VFR Marginal   IFR   IFR Intensif   IFR Très Intensif
Visi : 
Plafond : 
>= 8 km
>= 3000ft
5 à 8 km
1000 à 3000 ft
1500m à 5 km
500 à 1000 ft
800 à 1500m
200 à 500 ft
< 800m
< 200 ft
Symboles :   Orages  Brouillard  Fortes neiges  Fortes précipitations  Vent > 20 kt






- Altitude de l'aérodrome : 59 ft
- Code IATA : PBM


SMJP - J.A. Pengel Int.

DERNIER METAR :
  • 011200Z 11003KT 8000 VCSH SCT010 SCT025 25/24 Q1015 NOSIG

METARs EXPIRÉS :
  • 011100Z 06003KT 9999 FEW010 SCT030 25/24 Q1014 NOSIG
  • 011000Z VRB01KT 9999 FEW008 SCT025 24/24 Q1013 NOSIG

TAF TAF SMJP
Valide du 01 à 12h jusqu'au 02 à 12h UTC


011000Z 0112/0212 08008KT 9999 SCT015 TX30/0116Z TN23/0207Z
TEMPO 0117/0123 4000 SHRA FEW015CB BKN018
BECMG 0208/0211 3000 BR FEW003
FIR SMPM / Amérique du Sud



MET'MAP, la Météo Aéronautique d'un coup d'oeil ! - Copyright ORBIFLY Décembre 2007 - Disclaimer

ORBIFLY MET'MAP TEAM :

Programmation & Développement : Alexandra Zaïnal
Sur une idée originale de : Baudouin d'Aumeries
Assistance à la programmation : Marc-Olivier Méhu
Soutien technique & logistique : Manuel Goepfert

Contact : metmap@orbifly.com




SOURCES & CREDITS :

   NOAA